TimeEDT,TemperatureF,Dew PointF,Humidity,Sea Level PressureIn,VisibilityMPH,Wind Direction,Wind SpeedMPH,Gust SpeedMPH,PrecipitationIn,Events,Conditions,WindDirDegrees,DateUTC
12:53 AM,80.1,75.0,85,29.88,10.0,SSW,4.6,-,N/A,,Clear,200,2013-06-13 04:53:00
1:53 AM,80.1,73.9,81,29.88,10.0,SSW,4.6,-,N/A,,Clear,210,2013-06-13 05:53:00
2:53 AM,80.1,73.9,81,29.87,10.0,SW,3.5,-,N/A,,Clear,220,2013-06-13 06:53:00
3:53 AM,79.0,73.0,82,29.87,10.0,WSW,3.5,-,N/A,,Clear,250,2013-06-13 07:53:00
4:53 AM,79.0,73.0,82,29.86,10.0,SW,3.5,-,N/A,,Clear,230,2013-06-13 08:53:00
5:53 AM,78.1,73.0,84,29.85,10.0,SW,4.6,-,N/A,,Clear,230,2013-06-13 09:53:00
6:53 AM,78.1,73.0,84,29.85,10.0,SW,5.8,-,N/A,,Clear,230,2013-06-13 10:53:00
7:53 AM,82.0,73.9,76,29.83,10.0,WSW,6.9,-,N/A,,Clear,240,2013-06-13 11:53:00
8:53 AM,86.0,73.9,67,29.83,10.0,SW,10.4,-,N/A,,Clear,230,2013-06-13 12:53:00
9:53 AM,89.1,73.9,61,29.82,10.0,SW,11.5,-,N/A,,Clear,230,2013-06-13 13:53:00
10:53 AM,91.9,73.9,55,29.81,10.0,SW,15.0,20.7,N/A,,Clear,230,2013-06-13 14:53:00
11:53 AM,93.9,71.1,47,29.79,10.0,SW,10.4,23.0,N/A,,Clear,230,2013-06-13 15:53:00
12:53 PM,95.0,68.0,41,29.77,10.0,WSW,18.4,24.2,N/A,,Clear,250,2013-06-13 16:53:00
1:53 PM,95.0,69.1,43,29.75,10.0,SW,19.6,27.6,N/A,,Clear,230,2013-06-13 17:53:00
2:53 PM,95.0,71.1,46,29.73,10.0,WSW,15.0,27.6,N/A,,Clear,250,2013-06-13 18:53:00
3:53 PM,96.1,70.0,43,29.70,10.0,WSW,12.7,25.3,N/A,,Clear,240,2013-06-13 19:53:00
4:53 PM,96.1,69.1,41,29.69,10.0,SW,13.8,20.7,N/A,,Clear,230,2013-06-13 20:53:00
5:53 PM,95.0,70.0,44,29.67,10.0,SW,17.3,26.5,N/A,,Clear,230,2013-06-13 21:53:00
6:53 PM,93.0,69.1,45,29.68,10.0,WSW,12.7,-,N/A,,Clear,250,2013-06-13 22:53:00
7:53 PM,90.0,70.0,52,29.69,10.0,SW,9.2,-,N/A,,Clear,220,2013-06-13 23:53:00
8:53 PM,88.0,70.0,55,29.69,10.0,WSW,9.2,-,N/A,,Clear,250,2013-06-14 00:53:00
9:53 PM,86.0,70.0,59,29.69,10.0,WSW,10.4,-,N/A,,Partly Cloudy,240,2013-06-14 01:53:00
10:02 PM,86.0,69.8,58,29.70,10.0,West,9.2,-,N/A,Thunderstorm,Partly Cloudy,260,2013-06-14 02:02:00
10:09 PM,86.0,71.6,62,29.70,10.0,WSW,12.7,-,0.00,Rain-Thunderstorm,Light Rain,250,2013-06-14 02:09:00
10:53 PM,79.0,72.0,79,29.73,10.0,WNW,8.1,-,0.00,,Mostly Cloudy,300,2013-06-14 02:53:00
11:53 PM,77.0,73.0,88,29.75,10.0,NNW,6.9,-,N/A,,Scattered Clouds,330,2013-06-14 03:53:00